Погода в Малыкане

Россия / Республика Саха (Якутия)     60°41′03″N   124°43′55″E
темп.,
°C
ветер,
м/с
пор.,
м/с
влажн.,
%
обл.,
%
осадки,
мм/ч
давл.,
гПа
погр.,
м
18 января, пн
пн1800:00−46юз129877 0.0 103618
03:00−46юз129878 0.0 103519
06:00−45юз119795 0.0 103518
09:00−45ююз129794 0.0 103419
12:00−42ююз129682 0.0 103295
15:00−40ю119789 0.0 103037
18:00−42юв119790 0.0 103018
21:00−42вюв119786 0.0 102918
19 января, вт
вт1900:00−43вюв119873 0.0 102718
03:00−43вюв119671 0.0 102718
06:00−43вюв119545 0.0 102618
09:00−43вюв129328 0.0 102518
12:00−38вюв12921 0.0 102384
15:00−36в22940 0.0 102073
18:00−38вюв229020 0.0 102026
21:00−38вюв228738 0.0 101834
20 января, ср
ср2000:00−34в238997 0.0 101694
03:00−32в239098 0.0 1015101
06:00−32юв1297100 0.0 101544
09:00−32юв119799 0.1 101719
12:00−30ююз119695 0.0 101752
15:00−29юз119789 0.0 101819
18:00−33юз019832 0.0 102019
21:00−34ссв0010034 0.0 102219
21 января, чт
чт2100:00−35ссв0110082 0.0 102419
03:00−33зюз019891 0.1 102619
06:00−36з129997 0.0 102819
09:00−38з129880 0.0 103019
12:00−36зюз259586 0.0 1031238
15:00−36з379493 0.0 1032572
18:00−38з2397100 0.0 103466
21:00−39зюз129799 0.0 103532
22 января, пт
пт2200:00−40юз1198100 0.0 103419
03:00−40юз1198100 0.1 103518
06:00−41юз1299100 0.0 103418
09:00−42юз119998 0.0 103418
12:00−39юз119671 0.0 103385
15:00−38юз009663 0.0 103118
18:00−42в119848 0.0 103118
21:00−42всв119953 0.0 103118